| time (UTC) | temp F | wind direction | speed MPH | gust MPH | rain 1hr in | rain 24hr in | rain mn in | humidity % | barometer mb |
| 20260904203033 | 76 | 331 | 4.0 | 11.0 | 0.00 | 0.19 | 0.00 | 56 | 1013.5 |
| 20260904201521 | 76 | 316 | 4.0 | 10.0 | 0.00 | 0.19 | 0.00 | 51 | 1013.6 |
| 20260904200017 | 76 | 349 | 4.0 | 9.0 | 0.00 | 0.19 | 0.00 | 56 | 1013.9 |
| 20260904194512 | 76 | 46 | 4.0 | 11.0 | 0.00 | 0.19 | 0.00 | 53 | 1014.0 |
| 20260904193009 | 75 | 24 | 2.0 | 10.0 | 0.00 | 0.19 | 0.00 | 51 | 1014.3 |
| 20260904191503 | 76 | 304 | 4.0 | 12.0 | 0.00 | 0.19 | 0.00 | 58 | 1014.2 |
| 20260904190059 | 76 | 307 | 6.0 | 10.0 | 0.00 | 0.19 | 0.00 | 57 | 1014.4 |
| 20260904184559 | 76 | 324 | 3.0 | 10.0 | 0.00 | 0.19 | 0.00 | 55 | 1014.5 |
| 20260904183050 | 75 | 305 | 6.0 | 10.0 | 0.00 | 0.19 | 0.00 | 55 | 1014.6 |
| 20260904181547 | 74 | 319 | 7.0 | 12.0 | 0.00 | 0.19 | 0.00 | 54 | 1014.8 |
| 20260904180041 | 76 | 289 | 5.0 | 10.0 | 0.00 | 0.19 | 0.00 | 53 | 1014.7 |
| 20260904174537 | 75 | 309 | 6.0 | 12.0 | 0.00 | 0.19 | 0.00 | 54 | 1015.0 |
| 20260904173034 | 74 | 289 | 4.0 | 10.0 | 0.00 | 0.19 | 0.00 | 52 | 1015.1 |
| 20260904171533 | 74 | 323 | 5.0 | 12.0 | 0.00 | 0.19 | 0.00 | 57 | 1015.4 |
| 20260904170023 | 74 | 319 | 5.0 | 9.0 | 0.00 | 0.19 | 0.00 | 45 | 1015.5 |
| 20260904164518 | 74 | 331 | 4.0 | 8.0 | 0.00 | 0.19 | 0.00 | 41 | 1015.4 |
| 20260904163013 | 74 | 323 | 1.0 | 9.0 | 0.00 | 0.19 | 0.00 | 40 | 1015.4 |
| 20260904161509 | 74 | 5 | 3.0 | 8.0 | 0.00 | 0.19 | 0.00 | 41 | 1015.5 |
| 20260904160009 | 74 | 269 | 4.0 | 8.0 | 0.00 | 0.19 | 0.00 | 31 | 1015.5 |
| 20260904154601 | 74 | 355 | 4.0 | 9.0 | 0.00 | 0.19 | 0.00 | 26 | 1015.6 |
| 20260904153058 | 73 | 259 | 3.0 | 8.0 | 0.00 | 0.19 | 0.00 | 24 | 1015.4 |
| 20260904151551 | 72 | 14 | 3.0 | 9.0 | 0.00 | 0.19 | 0.00 | 21 | 1015.5 |
| 20260904150048 | 72 | 295 | 2.0 | 6.0 | 0.00 | 0.19 | 0.00 | 14 | 1015.4 |
| 20260904144542 | 72 | 290 | 4.0 | 9.0 | 0.00 | 0.19 | 0.00 | 10 | 1015.2 |
| 20260904143038 | 71 | 300 | 4.0 | 8.0 | 0.00 | 0.19 | 0.00 | 6 | 1015.5 |
| 20260904141534 | 71 | 304 | 3.0 | 7.0 | 0.00 | 0.19 | 0.00 | 100 | 1015.4 |
| 20260904140035 | 70 | 12 | 3.0 | 9.0 | 0.00 | 0.19 | 0.00 | 100 | 1015.7 |
| 20260904134525 | 70 | 294 | 4.0 | 8.0 | 0.00 | 0.19 | 0.00 | 100 | 1015.6 |
| 20260904133022 | 69 | 317 | 4.0 | 8.0 | 0.00 | 0.19 | 0.00 | 100 | 1015.7 |
| 20260904131516 | 69 | 340 | 4.0 | 9.0 | 0.00 | 0.19 | 0.00 | 100 | 1015.8 |
| 20260904130029 | 68 | 288 | 2.0 | 9.0 | 0.00 | 0.19 | 0.00 | 100 | 1015.7 |
| 20260904124508 | 68 | 296 | 3.0 | 8.0 | 0.00 | 0.20 | 0.00 | 100 | 1015.7 |
| 20260904123003 | 67 | 273 | 4.0 | 10.0 | 0.00 | 0.20 | 0.00 | 100 | 1015.4 |
| 20260904121559 | 67 | 288 | 3.0 | 11.0 | 0.00 | 0.20 | 0.00 | 100 | 1015.6 |
| 20260904120057 | 66 | 309 | 3.0 | 7.0 | 0.00 | 0.20 | 0.00 | 100 | 1015.6 |
| 20260904114550 | 65 | 286 | 2.0 | 5.0 | 0.00 | 0.20 | 0.00 | 100 | 1015.5 |
| 20260904113045 | 65 | 339 | 2.0 | 5.0 | 0.00 | 0.20 | 0.00 | 100 | 1015.4 |
| 20260904111542 | 64 | 260 | 0.0 | 4.0 | 0.00 | 0.20 | 0.00 | 100 | 1015.4 |
| 20260904110039 | 64 | 269 | 0.0 | 1.0 | 0.00 | 0.20 | 0.00 | 100 | 1015.2 |
| 20260904104535 | 64 | 302 | 0.0 | 3.0 | 0.00 | 0.20 | 0.00 | 100 | 1015.2 |
| 20260904103028 | 64 | 250 | 0.0 | 2.0 | 0.00 | 0.20 | 0.00 | 100 | 1014.9 |
| 20260904101523 | 65 | 281 | 1.0 | 5.0 | 0.00 | 0.20 | 0.00 | 100 | 1014.9 |
| 20260904100018 | 65 | 259 | 2.0 | 5.0 | 0.00 | 0.20 | 0.00 | 100 | 1014.9 |
| 20260904094514 | 65 | 267 | 2.0 | 4.0 | 0.00 | 0.20 | 0.00 | 100 | 1014.8 |
| 20260904093010 | 65 | 250 | 1.0 | 4.0 | 0.00 | 0.20 | 0.00 | 100 | 1014.8 |
| 20260904091505 | 65 | 294 | 1.0 | 4.0 | 0.00 | 0.20 | 0.00 | 100 | 1014.7 |
| 20260904090004 | 65 | 250 | 1.0 | 3.0 | 0.00 | 0.20 | 0.00 | 100 | 1014.6 |
| 20260904084558 | 65 | 239 | 1.0 | 4.0 | 0.00 | 0.20 | 0.00 | 100 | 1014.6 |
| 20260904083052 | 65 | 265 | 1.0 | 5.0 | 0.00 | 0.20 | 0.00 | 100 | 1014.2 |
| 20260904081548 | 65 | 306 | 0.0 | 3.0 | 0.00 | 0.20 | 0.00 | 100 | 1014.1 |
| 20260904080048 | 65 | 360 | 1.0 | 4.0 | 0.00 | 0.20 | 0.00 | 100 | 1013.9 |
| 20260904074544 | 66 | 337 | 0.0 | 3.0 | 0.00 | 0.20 | 0.00 | 100 | 1013.9 |
| 20260904073036 | 66 | 321 | 0.0 | 2.0 | 0.00 | 0.20 | 0.00 | 100 | 1013.8 |
| 20260904071530 | 66 | 323 | 0.0 | 3.0 | 0.00 | 0.20 | 0.00 | 100 | 1013.5 |
| 20260904070026 | 67 | 315 | 1.0 | 4.0 | 0.00 | 0.20 | 0.00 | 100 | 1013.6 |
| 20260904064521 | 68 | 336 | 0.0 | 3.0 | 0.00 | 0.20 | 0.00 | 100 | 1013.5 |
| 20260904063021 | 68 | 290 | 0.0 | 3.0 | 0.00 | 0.20 | 0.00 | 100 | 1013.6 |
| 20260904061520 | 68 | 283 | 0.0 | 0.0 | 0.00 | 0.20 | 0.00 | 100 | 1013.7 |
| 20260904060008 | 67 | 283 | 0.0 | 0.0 | 0.00 | 0.20 | 0.00 | 100 | 1013.9 |
| 20260904054508 | 67 | 283 | 0.0 | 0.0 | 0.00 | 0.20 | 0.00 | 100 | 1013.9 |
| 20260904053102 | 68 | 283 | 0.0 | 0.0 | 0.00 | 0.20 | 0.00 | 100 | 1014.0 |
| 20260904051602 | 68 | 283 | 0.0 | 1.0 | 0.00 | 0.20 | 0.00 | 100 | 1014.0 |
| 20260904050050 | 68 | 283 | 0.0 | 2.0 | 0.00 | 0.20 | 0.00 | 100 | 1014.1 |
| 20260904044546 | 68 | 249 | 0.0 | 2.0 | 0.00 | 0.20 | 0.00 | 100 | 1014.0 |
| 20260904043042 | 68 | 249 | 0.0 | 1.0 | 0.00 | 0.20 | 0.00 | 100 | 1014.1 |
| 20260904041539 | 68 | 249 | 0.0 | 2.0 | 0.00 | 0.20 | 0.00 | 100 | 1014.2 |
| 20260904040036 | 68 | 249 | 0.0 | 0.0 | 0.00 | 0.20 | 0.00 | 100 | 1014.2 |
| 20260904034534 | 68 | 249 | 0.0 | 2.0 | 0.01 | 0.20 | 0.20 | 100 | 1014.2 |
| 20260904033033 | 68 | 249 | 0.0 | 2.0 | 0.01 | 0.20 | 0.20 | 100 | 1014.0 |
| 20260904031532 | 68 | 180 | 0.0 | 2.0 | 0.05 | 0.20 | 0.20 | 100 | 1014.1 |
| 20260904030031 | 68 | 180 | 0.0 | 2.0 | 0.05 | 0.20 | 0.20 | 100 | 1013.9 |
| 20260904024530 | 68 | 64 | 1.0 | 4.0 | 0.05 | 0.25 | 0.19 | 100 | 1014.3 |
| 20260904023027 | 69 | 84 | 2.0 | 9.0 | 0.14 | 0.25 | 0.19 | 100 | 1014.3 |
| 20260904021526 | 69 | 355 | 2.0 | 12.0 | 0.14 | 0.21 | 0.15 | 100 | 1014.2 |
| 20260904020018 | 72 | 326 | 3.0 | 4.0 | 0.14 | 0.21 | 0.15 | 100 | 1013.9 |
| 20260904014513 | 72 | 321 | 1.0 | 2.0 | 0.13 | 0.23 | 0.14 | 100 | 1013.7 |
| 20260904013011 | 72 | 304 | 0.0 | 1.0 | 0.03 | 0.13 | 0.04 | 100 | 1013.9 |
| 20260904011505 | 72 | 303 | 1.0 | 2.0 | 0.00 | 0.10 | 0.01 | 100 | 1013.5 |
| 20260904010115 | 72 | 306 | 0.0 | 2.0 | 0.00 | 0.10 | 0.01 | 100 | 1013.5 |
| 20260904004556 | 72 | 315 | 0.0 | 1.0 | 0.00 | 0.82 | 0.01 | 100 | 1013.6 |
| 20260904003052 | 72 | 315 | 1.0 | 2.0 | 0.00 | 0.82 | 0.01 | 100 | 1013.7 |
| 20260904001549 | 73 | 312 | 0.0 | 1.0 | 0.00 | 0.82 | 0.01 | 100 | 1013.7 |
| 20260904000052 | 73 | 318 | 1.0 | 2.0 | 0.00 | 0.82 | 0.01 | 100 | 1013.6 |
| 20260903234539 | 73 | 315 | 0.0 | 0.0 | 0.00 | 0.87 | 0.01 | 100 | 1013.4 |
| 20260903233035 | 74 | 315 | 0.0 | 0.0 | 0.00 | 0.87 | 0.01 | 100 | 1013.6 |
| 20260903231530 | 74 | 315 | 0.0 | 2.0 | 0.00 | 0.87 | 0.01 | 100 | 1013.6 |
| 20260903230025 | 75 | 306 | 1.0 | 2.0 | 0.00 | 0.87 | 0.01 | 100 | 1013.6 |
| 20260903224521 | 75 | 329 | 1.0 | 2.0 | 0.00 | 1.08 | 0.01 | 100 | 1013.5 |
| 20260903223023 | 75 | 29 | 2.0 | 6.0 | 0.00 | 1.08 | 0.01 | 100 | 1013.4 |
| 20260903221513 | 76 | 33 | 1.0 | 5.0 | 0.00 | 1.08 | 0.01 | 100 | 1013.1 |
| 20260903220008 | 76 | 63 | 2.0 | 7.0 | 0.00 | 1.08 | 0.01 | 100 | 1012.8 |
| 20260903214503 | 78 | 342 | 5.0 | 13.0 | 0.00 | 1.08 | 0.01 | 4 | 1013.1 |
| 20260903213103 | 80 | 313 | 6.0 | 10.0 | 0.00 | 1.08 | 0.01 | 28 | 1012.7 |
| 20260903211556 | 81 | 312 | 2.0 | 8.0 | 0.00 | 1.08 | 0.01 | 16 | 1012.6 |
| 20260903210106 | 81 | 300 | 2.0 | 8.0 | 0.00 | 1.08 | 0.01 | 19 | 1012.8 |
| 20260903204604 | 81 | 324 | 5.0 | 11.0 | 0.00 | 1.08 | 0.01 | 33 | 1013.0 |